,,PA_Meas_PMT16A,,PR_Meas_QMR101_102,,RH_Meas_QMH101,,SR_Meas_QMS101,,TA_Meas_QMH101,,GenWind,,GenWind,
time,status,PA,status,PR,status,RH,status,SR,status,TA,status,DirAvg,status,SpdAvg,
2015-05-02, 07:27:04,VALID,918.953,VALID,0,VALID,98.3192,VALID,74.9939,VALID,20.5999,VALID,225,VALID,0,
2015-05-02, 07:28:04,VALID,918.976,VALID,0,VALID,98.3421,VALID,64.0349,VALID,20.5609,VALID,251,VALID,0,
2015-05-02, 07:29:04,VALID,919.011,VALID,0,VALID,98.2963,VALID,65.6465,VALID,20.5804,VALID,250,VALID,0,
2015-05-02, 07:30:04,VALID,918.998,VALID,0,VALID,98.2658,VALID,88.1017,VALID,20.5804,VALID,250,VALID,0,
2015-05-02, 07:31:04,VALID,918.989,VALID,0,VALID,98.2506,VALID,117.97,VALID,20.621,VALID,250,VALID,0,
2015-05-02, 07:32:04,VALID,918.966,VALID,0,VALID,98.2048,VALID,135.483,VALID,20.639,VALID,158,VALID,0,
2015-05-02, 07:33:04,VALID,919.02,VALID,0,VALID,98.1667,VALID,125.706,VALID,20.699,VALID,83,VALID,0,
2015-05-02, 07:34:04,VALID,919.044,VALID,0,VALID,98.1362,VALID,84.5562,VALID,20.717,VALID,327,VALID,0,
2015-05-02, 07:35:04,VALID,919.094,VALID,0,VALID,98.1057,VALID,59.0926,VALID,20.717,VALID,318,VALID,0,
2015-05-02, 07:36:04,VALID,919.124,VALID,0,VALID,98.0448,VALID,61.7787,VALID,20.7771,VALID,344,VALID,0,
2015-05-02, 07:37:04,VALID,919.089,VALID,0,VALID,98.0066,VALID,82.085,VALID,20.7966,VALID,39,VALID,0.7625,
2015-05-02, 07:38:04,VALID,919.061,VALID,0,VALID,97.9685,VALID,102.714,VALID,20.834,VALID,49,VALID,1.02344,
2015-05-02, 07:39:04,VALID,919.083,VALID,0,VALID,97.8999,VALID,117.003,VALID,20.834,VALID,47,VALID,0.919531,
2015-05-02, 07:40:04,VALID,919.119,VALID,0,VALID,97.8313,VALID,126.351,VALID,20.8145,VALID,45,VALID,0.406641,
2015-05-02, 07:41:04,VALID,919.119,VALID,0,VALID,97.7474,VALID,127.21,VALID,20.834,VALID,45,VALID,0.0105469,
2015-05-02, 07:42:04,VALID,919.12,VALID,0,VALID,97.6407,VALID,126.351,VALID,20.8324,VALID,37,VALID,0.301953,
2015-05-02, 07:43:04,VALID,919.095,VALID,0,VALID,97.5721,VALID,134.839,VALID,20.912,VALID,37,VALID,0.0914062,
2015-05-02, 07:44:04,VALID,919.088,VALID,0,VALID,97.6026,VALID,148.161,VALID,20.9917,VALID,37,VALID,0.161719,
2015-05-02, 07:45:04,VALID,919.085,VALID,0,VALID,97.6102,VALID,153.641,VALID,21.0291,VALID,37,VALID,0.711328,
2015-05-02, 07:46:04,VALID,919.083,VALID,0,VALID,97.6102,VALID,154.393,VALID,21.1071,VALID,41,VALID,0.200391,
2015-05-02, 07:47:04,VALID,919.086,VALID,0,VALID,97.4882,VALID,154.608,VALID,21.1071,VALID,27,VALID,0.663281,
2015-05-02, 07:48:04,VALID,919.05,VALID,0,VALID,97.2824,VALID,153.104,VALID,21.0876,VALID,27,VALID,0,
2015-05-02, 07:49:04,VALID,919.064,VALID,0,VALID,97.069,VALID,154.071,VALID,21.1266,VALID,20,VALID,0,
2015-05-02, 07:50:04,VALID,919.051,VALID,0,VALID,96.8021,VALID,148.806,VALID,21.1461,VALID,7,VALID,0,
2015-05-02, 07:51:04,VALID,919.048,VALID,0,VALID,96.6573,VALID,144.831,VALID,21.2063,VALID,7,VALID,0,
2015-05-02, 07:52:04,VALID,919.072,VALID,0,VALID,96.642,VALID,141.07,VALID,21.1852,VALID,7,VALID,0,
2015-05-02, 07:53:04,VALID,919.077,VALID,0,VALID,96.4896,VALID,136.45,VALID,21.1657,VALID,6,VALID,0,
2015-05-02, 07:54:04,VALID,919.09,VALID,0,VALID,96.2304,VALID,130.004,VALID,21.1266,VALID,7,VALID,0,
2015-05-02, 07:55:04,VALID,919.105,VALID,0,VALID,96.3829,VALID,126.028,VALID,21.1852,VALID,7,VALID,0,
2015-05-02, 07:56:04,VALID,919.101,VALID,0,VALID,96.3219,VALID,126.781,VALID,21.1461,VALID,7,VALID,0,
2015-05-02, 07:57:04,VALID,919.117,VALID,0,VALID,96.116,VALID,129.789,VALID,21.1071,VALID,6,VALID,0,
2015-05-02, 07:58:04,VALID,919.127,VALID,0,VALID,95.9636,VALID,128.822,VALID,21.0681,VALID,7,VALID,0,
2015-05-02, 07:59:04,VALID,919.124,VALID,0,VALID,96.0017,VALID,126.566,VALID,21.0681,VALID,6,VALID,0,
2015-05-02, 08:00:04,VALID,919.145,VALID,0,VALID,96.299,VALID,127.855,VALID,21.1055,VALID,7,VALID,0,
2015-05-02, 08:01:04,VALID,919.174,VALID,0,VALID,96.6954,VALID,129.467,VALID,21.2242,VALID,343,VALID,0.403906,
2015-05-02, 08:02:04,VALID,919.182,VALID,0,VALID,96.6268,VALID,121.731,VALID,21.164,VALID,351,VALID,0.000390625,
2015-05-02, 08:03:04,VALID,919.236,VALID,0,VALID,96.5734,VALID,106.474,VALID,21.1657,VALID,9,VALID,0,
2015-05-02, 08:04:04,VALID,919.215,VALID,0,VALID,96.7564,VALID,93.4738,VALID,21.125,VALID,349,VALID,1.15781,
2015-05-02, 08:05:04,VALID,919.282,VALID,0,VALID,96.5963,VALID,80.366,VALID,21.047,VALID,38,VALID,1.39023,
2015-05-02, 08:06:04,VALID,919.31,VALID,0,VALID,96.6878,VALID,74.4567,VALID,21.0681,VALID,19,VALID,1.48438,
2015-05-02, 08:07:04,VALID,919.309,VALID,0,VALID,96.6878,VALID,74.3493,VALID,20.9706,VALID,284,VALID,0.777734,
2015-05-02, 08:08:04,VALID,919.332,VALID,0,VALID,96.7564,VALID,76.4981,VALID,20.891,VALID,6,VALID,1.68164,
2015-05-02, 08:09:04,VALID,919.36,VALID,0,VALID,96.825,VALID,92.2919,VALID,20.8324,VALID,359,VALID,1.99258,
2015-05-02, 08:10:04,VALID,919.352,VALID,0,VALID,96.764,VALID,98.631,VALID,20.756,VALID,352,VALID,1.83242,
2015-05-02, 08:11:04,VALID,919.371,VALID,0,VALID,96.8936,VALID,100.565,VALID,20.717,VALID,339,VALID,1.76836,
2015-05-02, 08:12:04,VALID,919.367,VALID,0,VALID,97.008,VALID,102.391,VALID,20.6959,VALID,354,VALID,1.54844,
2015-05-02, 08:13:04,VALID,919.41,VALID,0,VALID,96.9775,VALID,103.466,VALID,20.678,VALID,352,VALID,2.37148,
2015-05-02, 08:14:04,VALID,919.374,VALID,0,VALID,96.9622,VALID,101.962,VALID,20.678,VALID,353,VALID,1.04961,
2015-05-02, 08:15:04,VALID,919.392,VALID,0,VALID,97.0918,VALID,95.9449,VALID,20.6764,VALID,26,VALID,1.02578,
2015-05-02, 08:16:04,VALID,919.423,VALID,0,VALID,97.2519,VALID,82.085,VALID,20.7544,VALID,352,VALID,0.708984,
2015-05-02, 08:17:04,VALID,919.454,VALID,0,VALID,97.29,VALID,63.1754,VALID,20.7544,VALID,346,VALID,1.16016,
2015-05-02, 08:18:04,VALID,919.499,VALID,0,VALID,97.3434,VALID,56.6215,VALID,20.795,VALID,30,VALID,1.59102,
2015-05-02, 08:19:04,VALID,919.477,VALID,0,VALID,97.4882,VALID,64.5721,VALID,20.8519,VALID,24,VALID,1.82852,
2015-05-02, 08:20:04,VALID,919.512,VALID,0,VALID,97.6331,VALID,77.0353,VALID,20.8925,VALID,24,VALID,1.53633,
2015-05-02, 08:21:04,VALID,919.502,VALID,0,VALID,97.6407,VALID,96.3747,VALID,20.834,VALID,26,VALID,1.26914,
2015-05-02, 08:22:04,VALID,919.565,VALID,0,VALID,97.595,VALID,115.714,VALID,20.834,VALID,26,VALID,1.53281,
2015-05-02, 08:23:04,VALID,919.573,VALID,0,VALID,97.6483,VALID,125.062,VALID,20.8129,VALID,340,VALID,1.43398,
2015-05-02, 08:24:04,VALID,919.595,VALID,0,VALID,97.5721,VALID,128.607,VALID,20.795,VALID,350,VALID,1.09922,
2015-05-02, 08:25:04,VALID,919.597,VALID,0,VALID,97.5111,VALID,137.632,VALID,20.795,VALID,342,VALID,1.00937,
2015-05-02, 08:26:04,VALID,919.627,VALID,0,VALID,97.4273,VALID,138.921,VALID,20.8145,VALID,329,VALID,0.841406,
2015-05-02, 08:27:04,VALID,919.586,VALID,0,VALID,97.4349,VALID,130.648,VALID,20.8535,VALID,326,VALID,0.502344,
2015-05-02, 08:28:04,VALID,919.604,VALID,0,VALID,97.473,VALID,130.219,VALID,20.891,VALID,4,VALID,0.880078,
2015-05-02, 08:29:04,VALID,919.606,VALID,0,VALID,97.5645,VALID,124.954,VALID,20.9885,VALID,31,VALID,1.08359,
2015-05-02, 08:30:04,VALID,919.63,VALID,0,VALID,97.6102,VALID,113.565,VALID,20.9885,VALID,307,VALID,0,
2015-05-02, 08:31:04,VALID,919.623,VALID,0,VALID,97.4654,VALID,116.359,VALID,21.0096,VALID,347,VALID,0,
2015-05-02, 08:32:04,VALID,919.628,VALID,0,VALID,97.473,VALID,121.194,VALID,21.047,VALID,20,VALID,0,
2015-05-02, 08:33:04,VALID,919.615,VALID,0,VALID,97.4425,VALID,107.763,VALID,21.0681,VALID,334,VALID,0,
2015-05-02, 08:34:04,VALID,919.615,VALID,0,VALID,97.2443,VALID,106.904,VALID,21.008,VALID,357,VALID,0,
2015-05-02, 08:35:04,VALID,919.662,VALID,0,VALID,97.1376,VALID,126.781,VALID,21.008,VALID,23,VALID,0,
2015-05-02, 08:36:04,VALID,919.678,VALID,0,VALID,97.2367,VALID,156.005,VALID,21.0876,VALID,2,VALID,0,
2015-05-02, 08:37:04,VALID,919.665,VALID,0,VALID,97.1223,VALID,175.451,VALID,21.0275,VALID,8,VALID,0,
2015-05-02, 08:38:04,VALID,919.674,VALID,0,VALID,97.229,VALID,188.129,VALID,21.1071,VALID,20,VALID,0.3875,
2015-05-02, 08:39:04,VALID,919.709,VALID,0,VALID,97.2824,VALID,188.129,VALID,21.125,VALID,20,VALID,0,
2015-05-02, 08:40:04,VALID,919.699,VALID,0,VALID,97.3053,VALID,181.038,VALID,21.1852,VALID,11,VALID,0,
2015-05-02, 08:41:04,VALID,919.733,VALID,0,VALID,97.3434,VALID,182.865,VALID,21.2632,VALID,6,VALID,0,
2015-05-02, 08:42:04,VALID,919.772,VALID,0,VALID,97.2367,VALID,179.749,VALID,21.2421,VALID,339,VALID,0.696875,
2015-05-02, 08:43:04,VALID,919.759,VALID,0,VALID,96.9317,VALID,196.402,VALID,21.2242,VALID,344,VALID,1.05742,
2015-05-02, 08:44:04,VALID,919.76,VALID,0,VALID,96.9394,VALID,200.27,VALID,21.2811,VALID,24,VALID,0.525391,
2015-05-02, 08:45:04,VALID,919.776,VALID,0,VALID,96.9089,VALID,205.105,VALID,21.3396,VALID,24,VALID,0.227344,
2015-05-02, 08:46:04,VALID,919.803,VALID,0,VALID,96.947,VALID,215.205,VALID,21.4372,VALID,24,VALID,0.183984,
2015-05-02, 08:47:04,VALID,919.786,VALID,0,VALID,96.6954,VALID,215.957,VALID,21.4372,VALID,13,VALID,1.44336,
2015-05-02, 08:48:04,VALID,919.787,VALID,0,VALID,96.177,VALID,214.775,VALID,21.4567,VALID,3,VALID,0,
2015-05-02, 08:49:04,VALID,919.812,VALID,0,VALID,96.1541,VALID,217.568,VALID,21.5152,VALID,12,VALID,0,
2015-05-02, 08:50:04,VALID,919.832,VALID,0,VALID,95.4452,VALID,222.188,VALID,21.4762,VALID,4,VALID,0.757031,
2015-05-02, 08:51:04,VALID,919.799,VALID,0,VALID,94.5456,VALID,220.469,VALID,21.4372,VALID,330,VALID,0.367188,
2015-05-02, 08:52:04,VALID,919.777,VALID,0,VALID,94.5456,VALID,213.808,VALID,21.4372,VALID,2,VALID,0.0976563,
2015-05-02, 08:53:04,VALID,919.823,VALID,0,VALID,95.5748,VALID,212.089,VALID,21.5542,VALID,7,VALID,0,
2015-05-02, 08:54:04,VALID,919.84,VALID,0,VALID,95.4909,VALID,201.882,VALID,21.5542,VALID,13,VALID,0.0429688,
2015-05-02, 08:55:04,VALID,919.814,VALID,0,VALID,94.538,VALID,194.254,VALID,21.4957,VALID,347,VALID,0.0707031,
2015-05-02, 08:56:04,VALID,919.836,VALID,0,VALID,95.2088,VALID,187.27,VALID,21.5542,VALID,20,VALID,0,
2015-05-02, 08:57:04,VALID,919.854,VALID,0,VALID,95.1326,VALID,183.187,VALID,21.5932,VALID,6,VALID,0.185156,
2015-05-02, 08:58:04,VALID,919.873,VALID,0,VALID,95.3308,VALID,160.41,VALID,21.6306,VALID,37,VALID,0,
2015-05-02, 08:59:04,VALID,919.889,VALID,0,VALID,95.0564,VALID,139.888,VALID,21.6908,VALID,3,VALID,0.711328,
2015-05-02, 09:00:04,VALID,919.949,VALID,0,VALID,94.2712,VALID,150.525,VALID,21.6501,VALID,36,VALID,0.0078125,
2015-05-02, 09:01:04,VALID,919.914,VALID,0,VALID,94.416,VALID,165.997,VALID,21.6891,VALID,18,VALID,0.33125,
2015-05-02, 09:02:04,VALID,919.957,VALID,0,VALID,94.9801,VALID,198.659,VALID,21.7883,VALID,15,VALID,0.301953,
2015-05-02, 09:03:04,VALID,920.001,VALID,0,VALID,94.8658,VALID,233.362,VALID,21.8062,VALID,313,VALID,0,
2015-05-02, 09:04:04,VALID,919.986,VALID,0,VALID,94.6142,VALID,222.833,VALID,21.8062,VALID,36,VALID,0,
2015-05-02, 09:05:04,VALID,919.969,VALID,0,VALID,92.5635,VALID,202.204,VALID,21.7282,VALID,4,VALID,0.696875,
2015-05-02, 09:06:04,VALID,920.007,VALID,0,VALID,92.6245,VALID,178.245,VALID,21.7087,VALID,318,VALID,0.0183594,
2015-05-02, 09:07:04,VALID,919.999,VALID,0,VALID,93.6994,VALID,200.378,VALID,21.7087,VALID,13,VALID,0,
2015-05-02, 09:08:04,VALID,919.999,VALID,0,VALID,93.8138,VALID,213.486,VALID,21.7493,VALID,38,VALID,0.586328,
2015-05-02, 09:09:04,VALID,919.985,VALID,0,VALID,93.89,VALID,250.23,VALID,21.7688,VALID,31,VALID,0,
2015-05-02, 09:10:04,VALID,919.989,VALID,0,VALID,93.9281,VALID,272.686,VALID,21.8257,VALID,27,VALID,0,
2015-05-02, 09:11:04,VALID,919.97,VALID,0,VALID,93.7604,VALID,273.115,VALID,21.8647,VALID,27,VALID,0.28125,
2015-05-02, 09:12:04,VALID,919.966,VALID,0,VALID,94.0958,VALID,264.842,VALID,21.9444,VALID,33,VALID,1.28672,
2015-05-02, 09:13:04,VALID,919.996,VALID,0,VALID,94.3398,VALID,251.412,VALID,22.0208,VALID,20,VALID,0.547266,
2015-05-02, 09:14:04,VALID,919.971,VALID,0,VALID,94.2712,VALID,234.866,VALID,22.1396,VALID,4,VALID,0,
2015-05-02, 09:15:04,VALID,920.004,VALID,0,VALID,92.5788,VALID,260.008,VALID,22.1964,VALID,22,VALID,0.0121094,
2015-05-02, 09:16:04,VALID,920.05,VALID,0,VALID,92.3882,VALID,305.455,VALID,22.2745,VALID,79,VALID,0,
2015-05-02, 09:17:04,VALID,920.016,VALID,0,VALID,89.8725,VALID,273.867,VALID,22.2354,VALID,253,VALID,0.00820312,
2015-05-02, 09:18:04,VALID,920.022,VALID,0,VALID,90.4442,VALID,280.529,VALID,22.1964,VALID,26,VALID,0.868359,
2015-05-02, 09:19:04,VALID,920.066,VALID,0,VALID,92.8075,VALID,301.158,VALID,22.2159,VALID,316,VALID,0,
2015-05-02, 09:20:04,VALID,920.026,VALID,0,VALID,93.0667,VALID,314.91,VALID,22.3135,VALID,36,VALID,0.569141,
2015-05-02, 09:21:04,VALID,920.03,VALID,0,VALID,92.6016,VALID,331.134,VALID,22.3916,VALID,2,VALID,0.723437,
2015-05-02, 09:22:04,VALID,920.056,VALID,0,VALID,89.7047,VALID,333.282,VALID,22.3916,VALID,35,VALID,0,
2015-05-02, 09:23:04,VALID,920.05,VALID,0,VALID,90.307,VALID,318.456,VALID,22.4518,VALID,22,VALID,0.332422,
2015-05-02, 09:24:04,VALID,920.017,VALID,0,VALID,89.9029,VALID,365.192,VALID,22.4891,VALID,9,VALID,2.1875,
2015-05-02, 09:25:04,VALID,920.036,VALID,0,VALID,88.0809,VALID,377.011,VALID,22.5299,VALID,12,VALID,0.0632813,
2015-05-02, 09:26:04,VALID,920.113,VALID,0,VALID,88.485,VALID,383.995,VALID,22.5689,VALID,32,VALID,0.466797,
2015-05-02, 09:27:04,VALID,920.142,VALID,0,VALID,88.5155,VALID,419.343,VALID,22.6665,VALID,14,VALID,1.54805,
2015-05-02, 09:28:04,VALID,920.174,VALID,0,VALID,87.3415,VALID,420.202,VALID,22.7623,VALID,1,VALID,0.507813,
2015-05-02, 09:29:04,VALID,920.171,VALID,0,VALID,86.6706,VALID,408.276,VALID,22.8599,VALID,1,VALID,0.421875,
2015-05-02, 09:30:04,VALID,920.175,VALID,0,VALID,86.3199,VALID,449.964,VALID,22.8812,VALID,15,VALID,2.55039,
2015-05-02, 09:31:04,VALID,920.154,VALID,0,VALID,85.9159,VALID,435.352,VALID,22.8421,VALID,6,VALID,2.65273,
2015-05-02, 09:32:04,VALID,920.207,VALID,0,VALID,85.9769,VALID,351.333,VALID,22.8209,VALID,31,VALID,0.54375,
2015-05-02, 09:33:04,VALID,920.243,VALID,0,VALID,86.5029,VALID,448.997,VALID,22.8404,VALID,354,VALID,0.586328,
2015-05-02, 09:34:04,VALID,920.208,VALID,0,VALID,86.9527,VALID,366.912,VALID,22.8989,VALID,20,VALID,0.00195313,
2015-05-02, 09:35:04,VALID,920.246,VALID,0,VALID,87.1433,VALID,325.654,VALID,22.9575,VALID,350,VALID,0.397656,
2015-05-02, 09:36:04,VALID,920.177,VALID,0,VALID,87.0899,VALID,263.661,VALID,23.0356,VALID,18,VALID,0.937891,
2015-05-02, 09:37:04,VALID,920.202,VALID,0,VALID,85.7863,VALID,244.644,VALID,22.9575,VALID,7,VALID,1.67148,
2015-05-02, 09:38:04,VALID,920.201,VALID,0,VALID,85.1917,VALID,281.711,VALID,22.8014,VALID,326,VALID,2.25,
2015-05-02, 09:39:04,VALID,920.229,VALID,0,VALID,87.3567,VALID,352.192,VALID,22.6647,VALID,20,VALID,2.52305,
2015-05-02, 09:40:04,VALID,920.276,VALID,0,VALID,88.4926,VALID,404.731,VALID,22.6257,VALID,18,VALID,1.45664,
2015-05-02, 09:41:04,VALID,920.231,VALID,0,VALID,88.9653,VALID,471.129,VALID,22.7428,VALID,33,VALID,0.765625,
2015-05-02, 09:42:04,VALID,920.241,VALID,0,VALID,87.9971,VALID,495.841,VALID,22.8989,VALID,12,VALID,2.16445,
2015-05-02, 09:43:04,VALID,920.269,VALID,0,VALID,87.1814,VALID,522.486,VALID,22.9948,VALID,342,VALID,0.0816406,
2015-05-02, 09:44:04,VALID,920.268,VALID,0,VALID,86.3733,VALID,550.851,VALID,23.1527,VALID,42,VALID,1.2918,
2015-05-02, 09:45:04,VALID,920.286,VALID,0,VALID,87.1204,VALID,520.982,VALID,23.3478,VALID,35,VALID,1.77227,
2015-05-02, 09:46:04,VALID,920.306,VALID,0,VALID,84.7343,VALID,522.594,VALID,23.4241,VALID,39,VALID,0.669141,
2015-05-02, 09:47:04,VALID,920.248,VALID,0,VALID,85.1612,VALID,624.126,VALID,23.4632,VALID,31,VALID,2.27734,
2015-05-02, 09:48:04,VALID,920.272,VALID,0,VALID,84.9706,VALID,621.654,VALID,23.5217,VALID,18,VALID,2.1543,
2015-05-02, 09:49:04,VALID,920.257,VALID,0,VALID,83.6594,VALID,559.231,VALID,23.5998,VALID,22,VALID,2.41875,
2015-05-02, 09:50:04,VALID,920.28,VALID,0,VALID,84.254,VALID,397.532,VALID,23.5803,VALID,352,VALID,2.07266,
2015-05-02, 09:51:04,VALID,920.283,VALID,0,VALID,83.7508,VALID,306.1,VALID,23.5803,VALID,12,VALID,2.40273,
2015-05-02, 09:52:04,VALID,920.298,VALID,0,VALID,83.6441,VALID,400.863,VALID,23.4259,VALID,12,VALID,2.65898,
2015-05-02, 09:53:04,VALID,920.356,VALID,0,VALID,85.1231,VALID,382.92,VALID,23.3088,VALID,5,VALID,1.93594,
2015-05-02, 09:54:04,VALID,920.324,VALID,0,VALID,84.9858,VALID,453.617,VALID,23.1722,VALID,35,VALID,1.57187,
2015-05-02, 09:55:04,VALID,920.295,VALID,0,VALID,86.2056,VALID,520.552,VALID,23.2502,VALID,28,VALID,1.64727,
2015-05-02, 09:56:04,VALID,920.274,VALID,0,VALID,85.0163,VALID,560.95,VALID,23.3088,VALID,10,VALID,1.80547,
2015-05-02, 09:57:04,VALID,920.246,VALID,0,VALID,83.9643,VALID,575.777,VALID,23.3461,VALID,21,VALID,1.1707,
2015-05-02, 09:58:04,VALID,920.257,VALID,0,VALID,85.4204,VALID,518.941,VALID,23.4827,VALID,21,VALID,1.45156,
2015-05-02, 09:59:04,VALID,920.293,VALID,0,VALID,85.0621,VALID,597.695,VALID,23.6584,VALID,332,VALID,1.92148,
2015-05-02, 10:00:04,VALID,920.244,VALID,0,VALID,83.0419,VALID,576.099,VALID,23.834,VALID,35,VALID,1.83438,
2015-05-02, 10:01:04,VALID,920.272,VALID,0,VALID,81.3952,VALID,829.016,VALID,23.9121,VALID,355,VALID,1.34492,
2015-05-02, 10:02:04,VALID,920.274,VALID,0,VALID,82.5311,VALID,738.013,VALID,24.0292,VALID,6,VALID,2.35547,
2015-05-02, 10:03:04,VALID,920.22,VALID,0,VALID,81.1208,VALID,671.4,VALID,24.0488,VALID,23,VALID,2.48828,
2015-05-02, 10:04:04,VALID,920.279,VALID,0,VALID,81.7001,VALID,550.851,VALID,24.0878,VALID,23,VALID,0.802734,
2015-05-02, 10:05:04,VALID,920.208,VALID,0,VALID,81.7154,VALID,535.164,VALID,24.0079,VALID,21,VALID,2.06523,
2015-05-02, 10:06:04,VALID,920.214,VALID,0,VALID,82.2872,VALID,374.647,VALID,24.0665,VALID,36,VALID,2.02695,
2015-05-02, 10:07:04,VALID,920.229,VALID,0,VALID,80.5185,VALID,323.398,VALID,23.9512,VALID,5,VALID,2.14922,
2015-05-02, 10:08:04,VALID,920.278,VALID,0,VALID,81.2275,VALID,283.215,VALID,23.756,VALID,324,VALID,2.10391,
2015-05-02, 10:09:04,VALID,920.277,VALID,0,VALID,80.2136,VALID,253.239,VALID,23.5785,VALID,353,VALID,1.34063,
2015-05-02, 10:10:04,VALID,920.233,VALID,0,VALID,82.31,VALID,228.635,VALID,23.4437,VALID,4,VALID,0.873047,
2015-05-02, 10:11:04,VALID,920.207,VALID,0,VALID,83.6365,VALID,275.157,VALID,23.4241,VALID,40,VALID,0.970312,
2015-05-02, 10:12:04,VALID,920.185,VALID,0,VALID,83.7508,VALID,326.836,VALID,23.3656,VALID,16,VALID,2.49141,
2015-05-02, 10:13:04,VALID,920.233,VALID,0,VALID,84.0024,VALID,354.126,VALID,23.2485,VALID,46,VALID,0.00195313,
2015-05-02, 10:14:04,VALID,920.206,VALID,0,VALID,83.7966,VALID,379.912,VALID,23.1882,VALID,308,VALID,0.000390625,
2015-05-02, 10:15:04,VALID,920.198,VALID,0,VALID,85.4585,VALID,417.839,VALID,23.229,VALID,12,VALID,0.0417969,
2015-05-02, 10:16:04,VALID,920.181,VALID,0,VALID,85.5881,VALID,460.278,VALID,23.3053,VALID,94,VALID,0.0503906,
2015-05-02, 10:17:04,VALID,920.187,VALID,0,VALID,83.7432,VALID,595.009,VALID,23.5022,VALID,342,VALID,1.04961,
2015-05-02, 10:18:04,VALID,920.178,VALID,0,VALID,83.4688,VALID,517.651,VALID,23.5803,VALID,342,VALID,0.603906,
2015-05-02, 10:19:04,VALID,920.13,VALID,0,VALID,84.3226,VALID,494.014,VALID,23.6566,VALID,25,VALID,1.60391,
2015-05-02, 10:20:04,VALID,920.159,VALID,0,VALID,81.3876,VALID,472.311,VALID,23.6584,VALID,339,VALID,1.20625,
2015-05-02, 10:21:04,VALID,920.124,VALID,0,VALID,81.6773,VALID,407.524,VALID,23.7364,VALID,355,VALID,0.0121094,
2015-05-02, 10:22:04,VALID,920.135,VALID,0,VALID,81.4486,VALID,394.309,VALID,23.8713,VALID,328,VALID,0.00234375,
2015-05-02, 10:23:04,VALID,920.098,VALID,0,VALID,83.1334,VALID,553,VALID,23.9902,VALID,28,VALID,0.868359,
2015-05-02, 10:24:04,VALID,920.057,VALID,0,VALID,83.1791,VALID,512.279,VALID,23.9493,VALID,9,VALID,1.6418,
2015-05-02, 10:25:04,VALID,920.069,VALID,0,VALID,81.8755,VALID,466.187,VALID,23.8713,VALID,347,VALID,0.944922,
2015-05-02, 10:26:04,VALID,920.038,VALID,0,VALID,81.2351,VALID,499.494,VALID,23.9103,VALID,14,VALID,0,
2015-05-02, 10:27:04,VALID,920.055,VALID,0,VALID,81.5553,VALID,546.016,VALID,24.0079,VALID,339,VALID,0.757031,
2015-05-02, 10:28:04,VALID,920.012,VALID,0,VALID,81.9136,VALID,449.534,VALID,23.8908,VALID,333,VALID,1.76641,
2015-05-02, 10:29:04,VALID,919.963,VALID,0,VALID,82.9656,VALID,404.731,VALID,23.8127,VALID,7,VALID,0.491797,
2015-05-02, 10:30:04,VALID,919.957,VALID,0,VALID,83.6212,VALID,378.515,VALID,23.9121,VALID,19,VALID,2.07734,
2015-05-02, 10:31:04,VALID,919.977,VALID,0,VALID,80.7091,VALID,445.558,VALID,23.8145,VALID,4,VALID,1.46367,
2015-05-02, 10:32:04,VALID,919.947,VALID,0,VALID,84.1625,VALID,644.647,VALID,23.7169,VALID,352,VALID,0.751953,
2015-05-02, 10:33:04,VALID,919.937,VALID,0,VALID,82.5997,VALID,607.257,VALID,23.8145,VALID,341,VALID,0.00273437,
2015-05-02, 10:34:04,VALID,919.866,VALID,0,VALID,82.2414,VALID,794.312,VALID,23.8517,VALID,39,VALID,0.372656,
2015-05-02, 10:35:04,VALID,919.918,VALID,0,VALID,82.4396,VALID,1177.77,VALID,24.0683,VALID,28,VALID,1.44062,
2015-05-02, 10:36:04,VALID,919.876,VALID,0,VALID,81.258,VALID,1116.74,VALID,24.3202,VALID,43,VALID,0.655078,
2015-05-02, 10:37:04,VALID,919.882,VALID,0,VALID,79.7409,VALID,925.068,VALID,24.6149,VALID,341,VALID,1.44805,
2015-05-02, 10:38:04,VALID,919.852,VALID,0,VALID,76.6839,VALID,787.436,VALID,24.6735,VALID,5,VALID,2.83008,
2015-05-02, 10:39:04,VALID,919.822,VALID,0,VALID,78.8033,VALID,546.446,VALID,24.5545,VALID,32,VALID,1.29062,
2015-05-02, 10:40:04,VALID,919.81,VALID,0,VALID,77.7055,VALID,667.962,VALID,24.6149,VALID,266,VALID,1.54453,
2015-05-02, 10:41:04,VALID,919.77,VALID,0,VALID,79.2607,VALID,470.7,VALID,24.4959,VALID,53,VALID,2.28164,
2015-05-02, 10:42:04,VALID,919.788,VALID,0,VALID,80.8082,VALID,668.177,VALID,24.4178,VALID,25,VALID,0.749609,
2015-05-02, 10:43:04,VALID,919.774,VALID,0,VALID,78.8109,VALID,392.483,VALID,24.4178,VALID,23,VALID,2.9832,
2015-05-02, 10:44:04,VALID,919.805,VALID,0,VALID,80.145,VALID,480.907,VALID,24.3788,VALID,15,VALID,2.59102,
2015-05-02, 10:45:04,VALID,919.749,VALID,0,VALID,79.0243,VALID,1061.41,VALID,24.4374,VALID,340,VALID,0.358203,
2015-05-02, 10:46:04,VALID,919.796,VALID,0,VALID,79.6342,VALID,1083.54,VALID,24.3202,VALID,30,VALID,1.76797,
2015-05-02, 10:47:04,VALID,919.806,VALID,0,VALID,76.6916,VALID,720.393,VALID,24.4374,VALID,305,VALID,2.67305,
2015-05-02, 10:48:04,VALID,919.726,VALID,0,VALID,77.9342,VALID,950.962,VALID,24.3202,VALID,16,VALID,2.96367,
2015-05-02, 10:49:04,VALID,919.757,VALID,0,VALID,80.5109,VALID,559.983,VALID,24.3202,VALID,338,VALID,1.41445,
2015-05-02, 10:50:04,VALID,919.799,VALID,0,VALID,79.2835,VALID,359.176,VALID,24.2812,VALID,10,VALID,3.19766,
2015-05-02, 10:51:04,VALID,919.793,VALID,0,VALID,79.5503,VALID,442.55,VALID,24.3398,VALID,344,VALID,0.245703,
2015-05-02, 10:52:04,VALID,919.789,VALID,0,VALID,79.1768,VALID,1092.78,VALID,24.416,VALID,337,VALID,0.00195313,
2015-05-02, 10:53:04,VALID,919.789,VALID,0,VALID,78.5593,VALID,390.549,VALID,24.535,VALID,20,VALID,1.89922,
2015-05-02, 10:54:04,VALID,919.796,VALID,0,VALID,78.6508,VALID,922.597,VALID,24.5935,VALID,4,VALID,0.50625,
2015-05-02, 10:55:04,VALID,919.764,VALID,0,VALID,78.0104,VALID,449.856,VALID,24.7283,VALID,88,VALID,0.226563,
2015-05-02, 10:56:04,VALID,919.755,VALID,0,VALID,78.2544,VALID,366.589,VALID,24.8474,VALID,6,VALID,3.30039,
2015-05-02, 10:57:04,VALID,919.811,VALID,0,VALID,79.9544,VALID,1068.07,VALID,24.6893,VALID,359,VALID,2.39609,
2015-05-02, 10:58:04,VALID,919.761,VALID,0,VALID,77.736,VALID,484.667,VALID,24.7302,VALID,30,VALID,2.18047,
2015-05-02, 10:59:04,VALID,919.766,VALID,0,VALID,77.7207,VALID,1137.16,VALID,24.9431,VALID,44,VALID,0.65,
2015-05-02, 11:00:04,VALID,919.749,VALID,0,VALID,74.9763,VALID,554.181,VALID,25.1579,VALID,261,VALID,1.02109,
2015-05-02, 11:01:04,VALID,919.768,VALID,0,VALID,78.8566,VALID,517.329,VALID,25.1598,VALID,16,VALID,1.54336,
2015-05-02, 11:02:04,VALID,919.702,VALID,0,VALID,77.9266,VALID,509.379,VALID,25.2379,VALID,40,VALID,1.10508,
2015-05-02, 11:03:04,VALID,919.741,VALID,0,VALID,76.6001,VALID,804.949,VALID,25.2945,VALID,12,VALID,1.48242,
2015-05-02, 11:04:04,VALID,919.636,VALID,0,VALID,76.3333,VALID,712.657,VALID,25.1207,VALID,16,VALID,4.12813,
2015-05-02, 11:05:04,VALID,919.757,VALID,0,VALID,76.1351,VALID,440.294,VALID,24.9236,VALID,341,VALID,2.02813,